Lebanon, NH

7:05 AM EST on January 16, 2018 (GMT -0500)
Lebanon Municipal

Weather History for KLEB - October, 2011

Change the Weather History Date:

Wednesday, October 26, 2011

  Actual Average Record
Temperature  
Mean Temperature 37 °F -  
Max Temperature 44 °F 54 °F 79 °F (1963)
Min Temperature 30 °F 34 °F 20 °F (1941)
Degree Days  
Heating Degree Days 28    
Moisture  
Dew Point 35 °F    
Average Humidity 86    
Maximum Humidity 92    
Minimum Humidity 73    
Precipitation  
Precipitation 0.03 in - - ()
Sea Level Pressure  
Sea Level Pressure 29.89 in    
Wind  
Wind Speed 1 mph (South)    
Max Wind Speed 5 mph    
Max Gust Speed -    
Visibility 10 miles    
Events Rain    
Averages and records for this station are not official NWS values.
T = Trace of Precipitation, MM = Missing Value Source: NWS Daily Summary

Daily Weather History Graph

Daily Weather History Graph

Search for Another Location

Airport or City:

Trip Planner

Search our weather history database for the weather conditions in past years. The results will help you decide how hot, cold, wet, or windy it might be!

Date:

Astronomy

Oct. 26, 2011 Rise Set
Actual Time 7:16 AM EDT 5:48 PM EDT
Civil Twilight 6:47 AM EDT 6:18 PM EDT
Nautical Twilight 6:13 AM EDT 6:51 PM EDT
Astronomical Twilight 5:40 AM EDT 7:25 PM EDT
Moon 7:02 AM EDT (10/26) 5:26 PM EDT (10/26)
Length of Visible Light 11h 31m
Length of Day
10h 32m
Waning Crescent, 0% of the Moon is Illuminated
Oct 26
Waning Crescent
Oct 26
New
Nov 2
First Quarter
Nov 10
Full
Nov 18
Last Quarter

Hourly Weather History & Observations

Time (EDT) Temp. Windchill Dew Point Humidity Pressure Visibility Wind Dir Wind Speed Gust Speed Precip Events Conditions
12:53 AM 32.0 °F - 28.9 °F 88% 29.99 in 10.0 mi Calm Calm - N/A   Clear
1:53 AM 30.9 °F - 28.0 °F 89% 30.00 in 10.0 mi Calm Calm - N/A   Mostly Cloudy
2:53 AM 32.0 °F 28.7 °F 28.9 °F 88% 30.00 in 10.0 mi South 3.5 mph - N/A   Mostly Cloudy
3:53 AM 33.1 °F - 30.0 °F 89% 29.97 in 10.0 mi Calm Calm - N/A   Clear
4:53 AM 33.1 °F 28.7 °F 30.0 °F 89% 29.96 in 10.0 mi South 4.6 mph - N/A   Clear
5:53 AM 33.1 °F - 30.0 °F 89% 29.96 in 10.0 mi Calm Calm - N/A   Clear
6:53 AM 35.6 °F - 32.0 °F 87% 29.95 in 10.0 mi Calm Calm - N/A   Overcast
7:53 AM 36.0 °F - 33.1 °F 89% 29.96 in 10.0 mi Calm Calm - N/A   Overcast
8:53 AM 37.4 °F - 33.8 °F 87% 29.94 in 10.0 mi Calm Calm - N/A   Overcast
9:53 AM 39.9 °F - 34.0 °F 79% 29.94 in 10.0 mi Calm Calm - N/A   Overcast
10:53 AM 41.0 °F - 35.6 °F 81% 29.91 in 9.0 mi Calm Calm - N/A   Overcast
11:53 AM 43.0 °F - 35.1 °F 74% 29.91 in 10.0 mi Calm Calm - N/A   Overcast
12:53 PM 44.1 °F 41.5 °F 36.0 °F 73% 29.86 in 10.0 mi SW 4.6 mph - N/A   Overcast
1:53 PM 44.1 °F - 37.0 °F 76% 29.87 in 9.0 mi Calm Calm - 0.00 in Rain Light Rain
2:53 PM 44.1 °F - 39.0 °F 82% 29.84 in 10.0 mi Calm Calm - 0.02 in Rain Light Rain
3:53 PM 44.1 °F - 37.9 °F 79% 29.83 in 10.0 mi Calm Calm - 0.00 in Rain Light Rain
4:53 PM 44.1 °F - 39.0 °F 82% 29.81 in 10.0 mi Calm Calm - 0.00 in   Overcast
5:53 PM 43.0 °F - 39.9 °F 89% 29.83 in 10.0 mi Calm Calm - N/A   Overcast
6:53 PM 43.0 °F - 39.9 °F 89% 29.81 in 10.0 mi Calm Calm - N/A   Overcast
7:53 PM 43.0 °F - 39.9 °F 89% 29.82 in 10.0 mi Calm Calm - 0.00 in Rain Light Rain
8:53 PM 42.1 °F - 39.9 °F 92% 29.81 in 10.0 mi Calm Calm - 0.01 in   Overcast
9:53 PM 42.1 °F 40.2 °F 39.9 °F 92% 29.81 in 10.0 mi SSE 3.5 mph - 0.00 in   Overcast
10:53 PM 42.1 °F - 39.9 °F 92% 29.79 in 10.0 mi Calm Calm - N/A   Overcast
11:53 PM 42.1 °F - 39.9 °F 92% 29.78 in 9.0 mi Calm Calm - N/A   Overcast